Time,TemperatureF,DewpointF,PressureIn,WindDirection,WindDirectionDegrees,WindSpeedMPH,WindSpeedGustMPH,Humidity,HourlyPrecipIn,Conditions,Clouds,dailyrainin,SoftwareType,DateUTC
2013-04-05 00:00:00,45.3,19.1,29.95,SSW,202,0.0,0.0,35,0.00,,,0.00,WUHU21623XXSP,2013-04-05 04:00:00,
2013-04-05 00:01:00,45.3,19.1,29.95,SSW,202,0.0,0.0,35,0.00,,,0.00,WUHU21623XXSP,2013-04-05 04:01:00,
2013-04-05 00:06:00,45.3,19.1,29.95,SSW,202,0.0,0.0,35,0.00,,,0.00,WUHU21623XXSP,2013-04-05 04:06:00,
2013-04-05 00:11:00,45.1,18.9,29.95,SSW,202,0.0,0.0,35,0.00,,,0.00,WUHU21623XXSP,2013-04-05 04:11:00,
2013-04-05 00:16:00,45.1,18.9,29.95,SSW,202,0.0,0.0,35,0.00,,,0.00,WUHU21623XXSP,2013-04-05 04:16:00,
2013-04-05 00:21:00,45.0,19.4,29.95,SSW,202,0.0,0.0,36,0.00,,,0.00,WUHU21623XXSP,2013-04-05 04:21:00,
2013-04-05 00:26:00,45.0,19.4,29.95,SSW,202,0.0,0.0,36,0.00,,,0.00,WUHU21623XXSP,2013-04-05 04:26:00,
2013-04-05 00:32:00,44.8,19.9,29.95,SSW,202,0.0,0.0,37,0.00,,,0.00,WUHU21623XXSP,2013-04-05 04:32:00,
2013-04-05 00:37:00,44.4,19.6,29.95,SSW,202,0.0,0.0,37,0.00,,,0.00,WUHU21623XXSP,2013-04-05 04:37:00,
2013-04-05 00:42:00,44.4,20.2,29.95,SSW,202,0.0,0.0,38,0.00,,,0.00,WUHU21623XXSP,2013-04-05 04:42:00,
2013-04-05 00:47:00,44.1,19.9,29.95,SSW,202,0.0,0.0,38,0.00,,,0.00,WUHU21623XXSP,2013-04-05 04:47:00,
2013-04-05 00:52:00,43.9,19.8,29.95,SSW,202,0.0,0.0,38,0.00,,,0.00,WUHU21623XXSP,2013-04-05 04:52:00,
2013-04-05 00:57:00,43.7,20.3,29.95,SSW,202,0.0,0.0,39,0.00,,,0.00,WUHU21623XXSP,2013-04-05 04:57:00,
2013-04-05 01:02:00,43.5,19.4,29.95,SSW,202,0.0,0.0,38,0.00,,,0.00,WUHU21623XXSP,2013-04-05 05:02:00,
2013-04-05 01:07:00,43.3,19.9,29.95,SSW,202,0.0,0.0,39,0.00,,,0.00,WUHU21623XXSP,2013-04-05 05:07:00,
2013-04-05 01:12:00,43.0,19.6,29.95,SSW,202,0.0,0.0,39,0.00,,,0.00,WUHU21623XXSP,2013-04-05 05:12:00,
2013-04-05 01:17:00,42.8,20.1,29.94,SSW,202,0.0,0.0,40,0.00,,,0.00,WUHU21623XXSP,2013-04-05 05:17:00,
2013-04-05 01:22:00,42.6,20.0,29.94,SSW,202,0.0,0.0,40,0.00,,,0.00,WUHU21623XXSP,2013-04-05 05:22:00,
2013-04-05 01:27:00,42.1,19.5,29.95,SSW,202,0.0,0.0,40,0.00,,,0.00,WUHU21623XXSP,2013-04-05 05:27:00,
2013-04-05 01:32:00,41.9,19.8,29.95,SSW,202,0.0,0.0,41,0.00,,,0.00,WUHU21623XXSP,2013-04-05 05:32:00,
2013-04-05 01:37:00,41.7,19.7,29.95,SSW,202,0.0,0.0,41,0.00,,,0.00,WUHU21623XXSP,2013-04-05 05:37:00,
2013-04-05 01:42:00,41.4,19.3,29.95,SSW,202,0.0,0.0,41,0.00,,,0.00,WUHU21623XXSP,2013-04-05 05:42:00,
2013-04-05 01:47:00,41.2,19.2,29.95,SSW,202,0.0,0.0,41,0.00,,,0.00,WUHU21623XXSP,2013-04-05 05:47:00,
2013-04-05 01:52:00,41.0,19.0,29.95,SSW,202,0.0,0.0,41,0.00,,,0.00,WUHU21623XXSP,2013-04-05 05:52:00,
2013-04-05 01:57:00,40.8,18.9,29.96,SSW,202,0.0,0.0,41,0.00,,,0.00,WUHU21623XXSP,2013-04-05 05:57:00,
2013-04-05 02:02:00,40.8,18.9,29.96,SSW,202,0.0,0.0,41,0.00,,,0.00,WUHU21623XXSP,2013-04-05 06:02:00,
2013-04-05 02:07:00,40.8,18.9,29.96,SSW,202,0.0,0.0,41,0.00,,,0.00,WUHU21623XXSP,2013-04-05 06:07:00,
2013-04-05 02:12:00,40.6,19.2,29.96,SSW,202,0.0,0.0,42,0.00,,,0.00,WUHU21623XXSP,2013-04-05 06:12:00,
2013-04-05 02:17:00,40.6,19.2,29.96,North,0,0.0,0.0,42,0.00,,,0.00,WUHU21623XXSP,2013-04-05 06:17:00,
2013-04-05 02:22:00,40.6,19.2,29.96,North,0,0.0,0.0,42,0.00,,,0.00,WUHU21623XXSP,2013-04-05 06:22:00,
2013-04-05 02:27:00,40.6,19.7,29.96,NNW,337,0.0,0.0,43,0.00,,,0.00,WUHU21623XXSP,2013-04-05 06:27:00,
2013-04-05 02:32:00,40.6,19.7,29.96,North,0,0.0,0.0,43,0.00,,,0.00,WUHU21623XXSP,2013-04-05 06:32:00,
2013-04-05 02:37:00,40.6,19.7,29.96,NNW,337,0.0,0.0,43,0.00,,,0.00,WUHU21623XXSP,2013-04-05 06:37:00,
2013-04-05 02:42:00,40.6,20.3,29.96,NNE,22,3.8,3.8,44,0.00,,,0.00,WUHU21623XXSP,2013-04-05 06:42:00,
2013-04-05 02:47:00,40.6,21.3,29.96,North,0,0.0,3.8,46,0.00,,,0.00,WUHU21623XXSP,2013-04-05 06:47:00,
2013-04-05 02:52:00,40.6,21.8,29.96,North,0,0.0,3.8,47,0.00,,,0.00,WUHU21623XXSP,2013-04-05 06:52:00,
2013-04-05 02:57:00,40.6,22.4,29.96,NNE,22,0.0,0.0,48,0.00,,,0.00,WUHU21623XXSP,2013-04-05 06:57:00,
2013-04-05 03:02:00,40.6,22.9,29.96,NE,45,0.0,0.0,49,0.00,,,0.00,WUHU21623XXSP,2013-04-05 07:02:00,
2013-04-05 03:07:00,40.6,23.8,29.97,North,0,8.1,8.1,51,0.00,,,0.00,WUHU21623XXSP,2013-04-05 07:07:00,
2013-04-05 03:12:00,40.3,24.1,29.97,North,0,0.0,8.1,53,0.00,,,0.00,WUHU21623XXSP,2013-04-05 07:12:00,
2013-04-05 03:17:00,40.3,25.3,29.97,North,0,0.0,0.0,55,0.00,,,0.00,WUHU21623XXSP,2013-04-05 07:17:00,
2013-04-05 03:22:00,40.1,25.1,29.97,North,0,0.0,0.0,55,0.00,,,0.00,WUHU21623XXSP,2013-04-05 07:22:00,
2013-04-05 03:27:00,39.9,25.8,29.97,NNE,22,0.0,3.8,57,0.00,,,0.00,WUHU21623XXSP,2013-04-05 07:27:00,
2013-04-05 03:32:00,39.7,26.1,29.97,NNW,337,0.0,3.8,58,0.00,,,0.00,WUHU21623XXSP,2013-04-05 07:32:00,
2013-04-05 03:37:00,39.6,26.3,29.97,NNE,22,0.0,0.0,59,0.00,,,0.00,WUHU21623XXSP,2013-04-05 07:37:00,
2013-04-05 03:42:00,39.2,26.4,29.97,North,0,3.6,7.4,60,0.00,,,0.00,WUHU21623XXSP,2013-04-05 07:42:00,
2013-04-05 03:47:00,39.0,26.6,29.97,NNW,337,0.0,3.6,61,0.00,,,0.00,WUHU21623XXSP,2013-04-05 07:47:00,
2013-04-05 03:52:00,38.7,26.7,29.98,NE,45,0.0,3.6,62,0.00,,,0.00,WUHU21623XXSP,2013-04-05 07:52:00,
2013-04-05 03:57:00,38.5,26.9,29.98,NE,45,4.3,4.3,63,0.00,,,0.00,WUHU21623XXSP,2013-04-05 07:57:00,
2013-04-05 04:02:00,38.3,27.1,29.98,North,0,2.9,4.3,64,0.00,,,0.00,WUHU21623XXSP,2013-04-05 08:02:00,
2013-04-05 04:07:00,38.1,27.0,29.99,North,0,4.3,4.3,64,0.00,,,0.00,WUHU21623XXSP,2013-04-05 08:07:00,
2013-04-05 04:12:00,37.9,27.2,29.99,NNE,22,4.5,4.5,65,0.00,,,0.00,WUHU21623XXSP,2013-04-05 08:12:00,
2013-04-05 04:17:00,37.8,27.4,29.99,North,0,0.0,4.5,66,0.00,,,0.00,WUHU21623XXSP,2013-04-05 08:17:00,
2013-04-05 04:22:00,37.4,27.1,29.99,North,0,0.9,4.7,66,0.00,,,0.00,WUHU21623XXSP,2013-04-05 08:22:00,
2013-04-05 04:27:00,37.2,27.3,29.99,NNW,337,7.4,7.4,67,0.00,,,0.00,WUHU21623XXSP,2013-04-05 08:27:00,
2013-04-05 04:32:00,37.2,27.6,29.99,North,0,3.6,7.4,68,0.00,,,0.00,WUHU21623XXSP,2013-04-05 08:32:00,
2013-04-05 04:37:00,36.9,27.3,30.00,North,0,0.0,7.4,68,0.00,,,0.00,WUHU21623XXSP,2013-04-05 08:37:00,
2013-04-05 04:42:00,36.7,27.5,30.00,North,0,0.0,7.4,69,0.00,,,0.00,WUHU21623XXSP,2013-04-05 08:42:00,
2013-04-05 04:47:00,36.5,27.7,30.00,NNE,22,4.5,4.5,70,0.00,,,0.00,WUHU21623XXSP,2013-04-05 08:47:00,
2013-04-05 04:53:00,36.3,27.5,30.01,North,0,0.0,6.7,70,0.00,,,0.00,WUHU21623XXSP,2013-04-05 08:53:00,
2013-04-05 04:58:00,36.3,27.5,30.01,NNE,22,2.0,6.7,70,0.00,,,0.00,WUHU21623XXSP,2013-04-05 08:58:00,
2013-04-05 05:02:00,36.1,27.6,30.01,North,0,3.4,3.4,71,0.00,,,0.00,WUHU21623XXSP,2013-04-05 09:02:00,
2013-04-05 05:07:00,35.8,27.5,30.02,NNE,22,0.0,8.1,71,0.00,,,0.00,WUHU21623XXSP,2013-04-05 09:07:00,
2013-04-05 05:12:00,35.8,27.3,30.02,North,0,2.9,8.1,71,0.00,,,0.00,WUHU21623XXSP,2013-04-05 09:12:00,
2013-04-05 05:17:00,35.4,27.2,30.02,NNE,22,0.0,4.3,72,0.00,,,0.00,WUHU21623XXSP,2013-04-05 09:17:00,
2013-04-05 05:22:00,35.2,27.1,30.03,NNE,22,1.1,4.3,72,0.00,,,0.00,WUHU21623XXSP,2013-04-05 09:22:00,
2013-04-05 05:27:00,34.9,27.1,30.03,North,0,5.6,5.6,73,0.00,,,0.00,WUHU21623XXSP,2013-04-05 09:27:00,
2013-04-05 05:32:00,34.9,27.0,30.03,NNW,337,0.0,5.6,73,0.00,,,0.00,WUHU21623XXSP,2013-04-05 09:32:00,
2013-04-05 05:37:00,34.5,26.7,30.04,NNE,22,1.3,3.1,73,0.00,,,0.00,WUHU21623XXSP,2013-04-05 09:37:00,
2013-04-05 05:42:00,34.3,26.5,30.04,NNW,337,1.6,4.3,73,0.00,,,0.00,WUHU21623XXSP,2013-04-05 09:42:00,
2013-04-05 05:47:00,34.3,26.5,30.04,NNE,22,2.5,5.4,73,0.00,,,0.00,WUHU21623XXSP,2013-04-05 09:47:00,
2013-04-05 05:52:00,34.3,26.8,30.04,NNE,22,4.0,5.4,74,0.00,,,0.00,WUHU21623XXSP,2013-04-05 09:52:00,
2013-04-05 05:57:00,34.2,26.8,30.04,NNE,22,4.0,4.0,74,0.00,,,0.00,WUHU21623XXSP,2013-04-05 09:57:00,
2013-04-05 06:02:00,34.0,26.5,30.04,North,0,2.2,4.0,74,0.00,,,0.00,WUHU21623XXSP,2013-04-05 10:02:00,
2013-04-05 06:07:00,33.8,26.6,30.05,North,0,3.8,3.8,75,0.00,,,0.00,WUHU21623XXSP,2013-04-05 10:07:00,
2013-04-05 06:12:00,33.6,26.4,30.05,NE,45,5.8,5.8,75,0.00,,,0.00,WUHU21623XXSP,2013-04-05 10:12:00,
2013-04-05 06:17:00,33.6,26.4,30.05,NNE,22,1.8,5.8,75,0.00,,,0.00,WUHU21623XXSP,2013-04-05 10:17:00,
2013-04-05 06:22:00,33.4,26.3,30.05,NNW,337,0.0,4.5,75,0.00,,,0.00,WUHU21623XXSP,2013-04-05 10:22:00,
2013-04-05 06:27:00,33.3,25.8,30.05,North,0,4.0,5.8,74,0.00,,,0.00,WUHU21623XXSP,2013-04-05 10:27:00,
2013-04-05 06:33:00,33.1,25.6,30.06,North,0,4.0,5.8,74,0.00,,,0.00,WUHU21623XXSP,2013-04-05 10:33:00,
2013-04-05 06:37:00,32.7,25.6,30.06,NNE,22,0.0,4.0,75,0.00,,,0.00,WUHU21623XXSP,2013-04-05 10:37:00,
2013-04-05 06:43:00,32.7,25.6,30.06,North,0,0.0,3.1,75,0.00,,,0.00,WUHU21623XXSP,2013-04-05 10:43:00,
2013-04-05 06:48:00,32.5,25.1,30.07,NNW,337,1.1,4.5,74,0.00,,,0.00,WUHU21623XXSP,2013-04-05 10:48:00,
2013-04-05 06:53:00,32.5,25.1,30.07,North,0,0.0,4.5,74,0.00,,,0.00,WUHU21623XXSP,2013-04-05 10:53:00,
2013-04-05 06:58:00,32.4,25.0,30.07,North,0,2.7,2.7,74,0.00,,,0.00,WUHU21623XXSP,2013-04-05 10:58:00,
2013-04-05 07:03:00,32.2,24.8,30.07,North,0,0.0,2.7,74,0.00,,,0.00,WUHU21623XXSP,2013-04-05 11:03:00,
2013-04-05 07:08:00,32.2,24.8,30.07,North,0,8.7,8.7,74,0.00,,,0.00,WUHU21623XXSP,2013-04-05 11:08:00,
2013-04-05 07:13:00,32.0,24.7,30.07,NNW,337,2.2,8.7,74,0.00,,,0.00,WUHU21623XXSP,2013-04-05 11:13:00,
2013-04-05 07:18:00,31.8,24.5,30.08,NNW,337,0.0,8.7,74,0.00,,,0.00,WUHU21623XXSP,2013-04-05 11:18:00,
2013-04-05 07:23:00,31.6,24.3,30.08,North,0,0.0,4.5,74,0.00,,,0.00,WUHU21623XXSP,2013-04-05 11:23:00,
2013-04-05 07:28:00,31.6,24.3,30.08,NNW,337,2.2,3.8,74,0.00,,,0.00,WUHU21623XXSP,2013-04-05 11:28:00,
2013-04-05 07:33:00,31.6,24.3,30.08,NNW,337,1.6,3.8,74,0.00,,,0.00,WUHU21623XXSP,2013-04-05 11:33:00,
2013-04-05 07:38:00,31.6,24.6,30.09,NNW,337,4.7,4.7,75,0.00,,,0.00,WUHU21623XXSP,2013-04-05 11:38:00,
2013-04-05 07:43:00,31.6,24.6,30.09,NNW,337,1.8,4.7,75,0.00,,,0.00,WUHU21623XXSP,2013-04-05 11:43:00,
2013-04-05 07:48:00,31.6,24.9,30.09,NNW,337,0.9,1.8,76,0.00,,,0.00,WUHU21623XXSP,2013-04-05 11:48:00,
2013-04-05 07:54:00,31.6,24.9,30.09,North,0,0.0,1.8,76,0.00,,,0.00,WUHU21623XXSP,2013-04-05 11:54:00,
2013-04-05 07:59:00,31.6,24.9,30.09,NNW,337,2.7,6.5,76,0.00,,,0.00,WUHU21623XXSP,2013-04-05 11:59:00,
2013-04-05 08:04:00,31.6,24.9,30.09,NNW,337,2.7,6.5,76,0.00,,,0.00,WUHU21623XXSP,2013-04-05 12:04:00,
2013-04-05 08:09:00,31.8,25.4,30.10,NNW,337,0.0,2.7,77,0.00,,,0.00,WUHU21623XXSP,2013-04-05 12:09:00,
2013-04-05 08:14:00,31.8,25.4,30.10,NNW,337,0.0,3.6,77,0.00,,,0.00,WUHU21623XXSP,2013-04-05 12:14:00,
2013-04-05 08:19:00,31.8,25.4,30.11,SSW,202,2.5,5.1,77,0.00,,,0.00,WUHU21623XXSP,2013-04-05 12:19:00,
2013-04-05 08:24:00,32.2,26.1,30.11,North,0,5.6,5.6,78,0.00,,,0.00,WUHU21623XXSP,2013-04-05 12:24:00,
2013-04-05 08:29:00,32.4,26.0,30.10,North,0,2.5,5.6,77,0.00,,,0.00,WUHU21623XXSP,2013-04-05 12:29:00,
2013-04-05 08:34:00,32.5,26.1,30.11,North,0,7.6,7.6,77,0.00,,,0.00,WUHU21623XXSP,2013-04-05 12:34:00,
2013-04-05 08:39:00,32.7,26.0,30.11,North,0,2.0,7.6,76,0.00,,,0.00,WUHU21623XXSP,2013-04-05 12:39:00,
2013-04-05 08:44:00,33.1,26.0,30.11,NNW,337,4.3,7.6,76,0.00,,,0.00,WUHU21623XXSP,2013-04-05 12:44:00,
2013-04-05 08:49:00,33.3,25.8,30.11,NNE,22,6.7,6.7,74,0.00,,,0.00,WUHU21623XXSP,2013-04-05 12:49:00,
2013-04-05 08:54:00,33.4,25.3,30.11,NNW,337,2.2,7.6,72,0.00,,,0.00,WUHU21623XXSP,2013-04-05 12:54:00,
2013-04-05 08:59:00,33.8,25.0,30.12,NNW,337,7.4,7.6,70,0.00,,,0.00,WUHU21623XXSP,2013-04-05 12:59:00,
2013-04-05 09:04:00,34.0,24.1,30.12,North,0,4.0,7.4,67,0.00,,,0.00,WUHU21623XXSP,2013-04-05 13:04:00,
2013-04-05 09:09:00,34.3,23.0,30.12,North,0,2.2,7.4,63,0.00,,,0.00,WUHU21623XXSP,2013-04-05 13:09:00,
2013-04-05 09:14:00,34.3,23.0,30.12,North,0,6.0,6.7,63,0.00,,,0.00,WUHU21623XXSP,2013-04-05 13:14:00,
2013-04-05 09:19:00,34.5,23.0,30.12,South,180,2.5,6.0,62,0.00,,,0.00,WUHU21623XXSP,2013-04-05 13:19:00,
2013-04-05 09:24:00,34.9,23.2,30.12,NNW,337,5.6,7.4,62,0.00,,,0.00,WUHU21623XXSP,2013-04-05 13:24:00,
2013-04-05 09:29:00,35.2,23.5,30.12,North,0,4.9,7.4,62,0.00,,,0.00,WUHU21623XXSP,2013-04-05 13:29:00,
2013-04-05 09:34:00,35.4,23.7,30.12,North,0,3.1,5.6,62,0.00,,,0.00,WUHU21623XXSP,2013-04-05 13:34:00,
2013-04-05 09:40:00,35.8,24.1,30.12,NNW,337,8.1,8.1,62,0.00,,,0.00,WUHU21623XXSP,2013-04-05 13:40:00,
2013-04-05 09:45:00,35.8,23.7,30.12,North,0,6.3,8.3,61,0.00,,,0.00,WUHU21623XXSP,2013-04-05 13:45:00,
2013-04-05 09:50:00,36.0,23.5,30.12,North,0,3.4,8.3,60,0.00,,,0.00,WUHU21623XXSP,2013-04-05 13:50:00,
2013-04-05 09:55:00,36.1,23.2,30.13,NNW,337,0.0,5.6,57,0.00,,,0.00,WUHU21623XXSP,2013-04-05 13:55:00,
2013-04-05 10:00:00,36.3,22.5,30.13,North,0,5.4,5.6,57,0.00,,,0.00,WUHU21623XXSP,2013-04-05 14:00:00,
2013-04-05 10:05:00,36.3,22.1,30.13,NNW,337,6.5,6.5,54,0.00,,,0.00,WUHU21623XXSP,2013-04-05 14:05:00,
2013-04-05 10:10:00,36.7,21.8,30.13,NE,45,5.8,6.5,55,0.00,,,0.00,WUHU21623XXSP,2013-04-05 14:10:00,
2013-04-05 10:15:00,37.0,22.3,30.13,NNE,22,4.0,5.8,55,0.00,,,0.00,WUHU21623XXSP,2013-04-05 14:15:00,
2013-04-05 10:20:00,37.2,21.6,30.13,NNW,337,4.5,7.6,53,0.00,,,0.00,WUHU21623XXSP,2013-04-05 14:20:00,
2013-04-05 10:25:00,37.4,21.3,30.13,North,0,7.4,7.6,52,0.00,,,0.00,WUHU21623XXSP,2013-04-05 14:25:00,
2013-04-05 10:30:00,37.6,21.5,30.14,NNW,337,8.1,8.1,52,0.00,,,0.00,WUHU21623XXSP,2013-04-05 14:30:00,
2013-04-05 10:36:00,37.9,21.8,30.13,NE,45,0.0,8.1,52,0.00,,,0.00,WUHU21623XXSP,2013-04-05 14:36:00,
2013-04-05 10:41:00,38.1,22.4,30.13,NNW,337,8.3,8.3,53,0.00,,,0.00,WUHU21623XXSP,2013-04-05 14:41:00,
2013-04-05 10:46:00,38.8,22.6,30.14,North,0,6.0,8.3,52,0.00,,,0.00,WUHU21623XXSP,2013-04-05 14:46:00,
2013-04-05 10:51:00,38.8,22.6,30.13,NE,45,0.0,8.1,52,0.00,,,0.00,WUHU21623XXSP,2013-04-05 14:51:00,
2013-04-05 10:56:00,39.4,23.1,30.14,NNW,337,1.8,8.1,52,0.00,,,0.00,WUHU21623XXSP,2013-04-05 14:56:00,
2013-04-05 11:01:00,39.7,22.4,30.14,NNW,337,2.2,2.2,50,0.00,,,0.00,WUHU21623XXSP,2013-04-05 15:01:00,
2013-04-05 11:07:00,39.9,22.7,30.14,NNW,337,0.0,2.2,50,0.00,,,0.00,WUHU21623XXSP,2013-04-05 15:07:00,
2013-04-05 11:12:00,39.9,21.2,30.14,North,0,4.7,10.7,47,0.00,,,0.00,WUHU21623XXSP,2013-04-05 15:12:00,
2013-04-05 11:17:00,40.3,22.0,30.14,NNW,337,0.0,11.4,48,0.00,,,0.00,WUHU21623XXSP,2013-04-05 15:17:00,
2013-04-05 11:22:00,40.6,22.4,30.14,NNW,337,4.9,11.4,48,0.00,,,0.00,WUHU21623XXSP,2013-04-05 15:22:00,
2013-04-05 11:27:00,41.0,22.5,30.14,North,0,0.0,4.9,48,0.00,,,0.00,WUHU21623XXSP,2013-04-05 15:27:00,
2013-04-05 11:32:00,41.0,22.5,30.14,North,0,0.0,0.0,48,0.00,,,0.00,WUHU21623XXSP,2013-04-05 15:32:00,
2013-04-05 11:37:00,42.6,24.1,30.14,NNW,337,5.6,5.6,47,0.00,,,0.00,WUHU21623XXSP,2013-04-05 15:37:00,
2013-04-05 11:42:00,43.0,24.1,30.14,NNE,22,2.0,5.6,47,0.00,,,0.00,WUHU21623XXSP,2013-04-05 15:42:00,
2013-04-05 11:47:00,43.2,23.8,30.15,North,0,5.6,5.6,46,0.00,,,0.00,WUHU21623XXSP,2013-04-05 15:47:00,
2013-04-05 11:52:00,43.3,23.3,30.14,North,0,0.0,5.6,45,0.00,,,0.00,WUHU21623XXSP,2013-04-05 15:52:00,
2013-04-05 11:57:00,43.5,22.9,30.15,NNW,337,3.4,5.8,44,0.00,,,0.00,WUHU21623XXSP,2013-04-05 15:57:00,
2013-04-05 12:02:00,43.9,22.5,30.15,NE,45,0.0,5.8,44,0.00,,,0.00,WUHU21623XXSP,2013-04-05 16:02:00,
2013-04-05 12:07:00,44.2,23.0,30.15,NNW,337,0.0,0.0,43,0.00,,,0.00,WUHU21623XXSP,2013-04-05 16:07:00,
2013-04-05 12:13:00,44.4,23.0,30.15,NNW,337,0.0,0.0,43,0.00,,,0.00,WUHU21623XXSP,2013-04-05 16:13:00,
2013-04-05 12:18:00,44.8,23.5,30.15,NNW,337,2.5,5.1,43,0.00,,,0.00,WUHU21623XXSP,2013-04-05 16:18:00,
2013-04-05 12:23:00,44.8,22.4,30.15,North,0,2.2,5.1,41,0.00,,,0.00,WUHU21623XXSP,2013-04-05 16:23:00,
2013-04-05 12:28:00,45.0,22.6,30.15,North,0,6.9,6.9,41,0.00,,,0.00,WUHU21623XXSP,2013-04-05 16:28:00,
2013-04-05 12:33:00,44.8,22.4,30.15,NNW,337,0.0,6.9,41,0.00,,,0.00,WUHU21623XXSP,2013-04-05 16:33:00,
2013-04-05 12:38:00,45.1,22.8,30.15,North,0,0.0,5.1,41,0.00,,,0.00,WUHU21623XXSP,2013-04-05 16:38:00,
2013-04-05 12:43:00,45.0,22.1,30.15,NE,45,6.9,6.9,40,0.00,,,0.00,WUHU21623XXSP,2013-04-05 16:43:00,
2013-04-05 12:48:00,45.5,23.1,30.15,NNW,337,7.4,7.4,41,0.00,,,0.00,WUHU21623XXSP,2013-04-05 16:48:00,
2013-04-05 12:53:00,45.1,22.2,30.15,North,0,3.8,7.4,40,0.00,,,0.00,WUHU21623XXSP,2013-04-05 16:53:00,
2013-04-05 12:58:00,45.1,21.6,30.15,SSW,202,3.6,7.4,39,0.00,,,0.00,WUHU21623XXSP,2013-04-05 16:58:00,
2013-04-05 13:03:00,45.3,22.4,30.15,NNE,22,3.6,3.6,40,0.00,,,0.00,WUHU21623XXSP,2013-04-05 17:03:00,
2013-04-05 13:08:00,45.5,21.9,30.15,NNE,22,7.8,7.8,39,0.00,,,0.00,WUHU21623XXSP,2013-04-05 17:08:00,
2013-04-05 13:13:00,46.0,22.4,30.14,North,0,0.0,7.8,39,0.00,,,0.00,WUHU21623XXSP,2013-04-05 17:13:00,
2013-04-05 13:18:00,46.0,22.4,30.14,SSW,202,0.0,7.4,39,0.00,,,0.00,WUHU21623XXSP,2013-04-05 17:18:00,
2013-04-05 13:23:00,46.6,23.5,30.14,NNW,337,0.0,7.4,40,0.00,,,0.00,WUHU21623XXSP,2013-04-05 17:23:00,
2013-04-05 13:28:00,46.6,22.2,30.15,SSW,202,6.5,6.5,38,0.00,,,0.00,WUHU21623XXSP,2013-04-05 17:28:00,
2013-04-05 13:33:00,45.7,20.7,30.15,North,0,5.8,7.2,37,0.00,,,0.00,WUHU21623XXSP,2013-04-05 17:33:00,
2013-04-05 13:38:00,45.7,20.7,30.15,NNW,337,8.5,8.5,37,0.00,,,0.00,WUHU21623XXSP,2013-04-05 17:38:00,
2013-04-05 13:43:00,45.5,20.6,30.15,NNW,337,7.8,8.5,37,0.00,,,0.00,WUHU21623XXSP,2013-04-05 17:43:00,
2013-04-05 13:48:00,45.7,20.0,30.14,North,0,0.0,8.7,36,0.00,,,0.00,WUHU21623XXSP,2013-04-05 17:48:00,
2013-04-05 13:53:00,45.3,21.1,30.14,NNE,22,6.9,8.7,38,0.00,,,0.00,WUHU21623XXSP,2013-04-05 17:53:00,
2013-04-05 13:58:00,45.5,21.2,30.14,North,0,2.7,6.9,38,0.00,,,0.00,WUHU21623XXSP,2013-04-05 17:58:00,
2013-04-05 14:03:00,45.7,21.4,30.14,NE,45,0.0,2.7,38,0.00,,,0.00,WUHU21623XXSP,2013-04-05 18:03:00,
2013-04-05 14:08:00,46.0,22.4,30.14,NNW,337,11.9,11.9,39,0.00,,,0.00,WUHU21623XXSP,2013-04-05 18:08:00,
2013-04-05 14:13:00,46.2,21.9,30.14,North,0,0.0,11.9,38,0.00,,,0.00,WUHU21623XXSP,2013-04-05 18:13:00,
2013-04-05 14:18:00,45.3,20.4,30.14,NE,45,6.5,6.5,37,0.00,,,0.00,WUHU21623XXSP,2013-04-05 18:18:00,
2013-04-05 14:23:00,45.7,21.4,30.14,NNW,337,4.0,6.5,38,0.00,,,0.00,WUHU21623XXSP,2013-04-05 18:23:00,
2013-04-05 14:28:00,46.2,21.9,30.14,North,0,6.7,6.7,38,0.00,,,0.00,WUHU21623XXSP,2013-04-05 18:28:00,
2013-04-05 14:33:00,46.6,21.5,30.14,North,0,6.5,8.5,37,0.00,,,0.00,WUHU21623XXSP,2013-04-05 18:33:00,
2013-04-05 14:38:00,46.6,21.5,30.14,NNW,337,0.0,8.5,37,0.00,,,0.00,WUHU21623XXSP,2013-04-05 18:38:00,
2013-04-05 14:43:00,46.9,21.0,30.14,North,0,6.0,6.7,36,0.00,,,0.00,WUHU21623XXSP,2013-04-05 18:43:00,
2013-04-05 14:48:00,47.1,22.0,30.13,NNE,22,0.0,6.0,37,0.00,,,0.00,WUHU21623XXSP,2013-04-05 18:48:00,
2013-04-05 14:53:00,47.3,20.8,30.14,North,0,0.0,0.0,35,0.00,,,0.00,WUHU21623XXSP,2013-04-05 18:53:00,
2013-04-05 14:58:00,47.8,22.7,30.14,North,0,6.9,6.9,37,0.00,,,0.00,WUHU21623XXSP,2013-04-05 18:58:00,
2013-04-05 15:03:00,48.0,22.8,30.13,NE,45,0.0,6.9,37,0.00,,,0.00,WUHU21623XXSP,2013-04-05 19:03:00,
2013-04-05 15:08:00,48.2,23.0,30.13,NE,45,0.0,4.9,37,0.00,,,0.00,WUHU21623XXSP,2013-04-05 19:08:00,
2013-04-05 15:13:00,48.7,22.8,30.14,NNE,22,0.0,5.6,36,0.00,,,0.00,WUHU21623XXSP,2013-04-05 19:13:00,
2013-04-05 15:19:00,48.7,22.1,30.13,NNW,337,0.0,5.6,35,0.00,,,0.00,WUHU21623XXSP,2013-04-05 19:19:00,
2013-04-05 15:24:00,48.9,21.6,30.13,NE,45,0.0,0.0,34,0.00,,,0.00,WUHU21623XXSP,2013-04-05 19:24:00,
2013-04-05 15:29:00,48.4,21.8,30.13,NNW,337,4.0,7.6,35,0.00,,,0.00,WUHU21623XXSP,2013-04-05 19:29:00,
2013-04-05 15:34:00,48.6,22.6,30.13,North,0,0.0,7.6,36,0.00,,,0.00,WUHU21623XXSP,2013-04-05 19:34:00,
2013-04-05 15:39:00,48.7,22.8,30.13,NNW,337,0.0,2.5,36,0.00,,,0.00,WUHU21623XXSP,2013-04-05 19:39:00,
2013-04-05 15:44:00,48.6,22.6,30.12,NNE,22,0.0,2.5,36,0.00,,,0.00,WUHU21623XXSP,2013-04-05 19:44:00,
2013-04-05 15:49:00,48.7,22.8,30.12,NNE,22,0.0,0.0,36,0.00,,,0.00,WUHU21623XXSP,2013-04-05 19:49:00,
2013-04-05 15:54:00,49.1,22.4,30.12,NNW,337,0.0,4.3,35,0.00,,,0.00,WUHU21623XXSP,2013-04-05 19:54:00,
2013-04-05 16:00:00,49.6,23.5,30.12,NNW,337,7.2,7.2,36,0.00,,,0.00,WUHU21623XXSP,2013-04-05 20:00:00,
2013-04-05 16:05:00,49.6,21.5,30.11,NNW,337,3.8,7.2,33,0.00,,,0.00,WUHU21623XXSP,2013-04-05 20:05:00,
2013-04-05 16:10:00,49.6,22.2,30.12,North,0,0.0,3.8,34,0.00,,,0.00,WUHU21623XXSP,2013-04-05 20:10:00,
2013-04-05 16:15:00,49.8,21.6,30.11,NNW,337,6.9,6.9,33,0.00,,,0.00,WUHU21623XXSP,2013-04-05 20:15:00,
2013-04-05 16:20:00,49.8,21.6,30.11,SW,225,0.0,6.9,33,0.00,,,0.00,WUHU21623XXSP,2013-04-05 20:20:00,
2013-04-05 16:25:00,49.5,21.4,30.11,North,0,5.1,5.8,33,0.00,,,0.00,WUHU21623XXSP,2013-04-05 20:25:00,
2013-04-05 16:30:00,50.0,21.1,30.11,SSW,202,0.0,5.1,32,0.00,,,0.00,WUHU21623XXSP,2013-04-05 20:30:00,
2013-04-05 16:35:00,50.4,21.5,30.11,North,0,5.1,10.7,32,0.00,,,0.00,WUHU21623XXSP,2013-04-05 20:35:00,
2013-04-05 16:40:00,50.4,21.5,30.11,North,0,0.0,10.7,32,0.00,,,0.00,WUHU21623XXSP,2013-04-05 20:40:00,
2013-04-05 16:45:00,50.5,20.2,30.11,SSW,202,0.0,11.4,30,0.00,,,0.00,WUHU21623XXSP,2013-04-05 20:45:00,
2013-04-05 16:50:00,50.5,20.9,30.12,SSW,202,0.0,11.4,31,0.00,,,0.00,WUHU21623XXSP,2013-04-05 20:50:00,
2013-04-05 16:55:00,50.7,20.6,30.11,SSW,202,0.0,0.0,30,0.00,,,0.00,WUHU21623XXSP,2013-04-05 20:55:00,
2013-04-05 17:00:00,50.7,21.9,30.11,NNE,22,0.0,0.0,32,0.00,,,0.00,WUHU21623XXSP,2013-04-05 21:00:00,
2013-04-05 17:05:00,50.5,21.6,30.11,NNW,337,0.0,2.5,32,0.00,,,0.00,WUHU21623XXSP,2013-04-05 21:05:00,
2013-04-05 17:10:00,50.2,20.9,30.11,NNW,337,5.6,5.6,31,0.00,,,0.00,WUHU21623XXSP,2013-04-05 21:10:00,
2013-04-05 17:15:00,50.2,20.6,30.11,North,0,8.3,8.3,31,0.00,,,0.00,WUHU21623XXSP,2013-04-05 21:15:00,
2013-04-05 17:20:00,50.7,20.4,30.12,North,0,2.5,8.3,30,0.00,,,0.00,WUHU21623XXSP,2013-04-05 21:20:00,
2013-04-05 17:25:00,50.7,20.4,30.12,NNE,22,0.0,7.4,30,0.00,,,0.00,WUHU21623XXSP,2013-04-05 21:25:00,
2013-04-05 17:30:00,50.5,21.6,30.12,North,0,0.0,7.4,32,0.00,,,0.00,WUHU21623XXSP,2013-04-05 21:30:00,
2013-04-05 17:35:00,50.7,21.1,30.12,NNW,337,0.0,0.0,31,0.00,,,0.00,WUHU21623XXSP,2013-04-05 21:35:00,
2013-04-05 17:40:00,50.5,20.9,30.12,North,0,0.0,2.2,31,0.00,,,0.00,WUHU21623XXSP,2013-04-05 21:40:00,
2013-04-05 17:46:00,50.7,21.8,30.12,North,0,0.0,6.0,32,0.00,,,0.00,WUHU21623XXSP,2013-04-05 21:46:00,
2013-04-05 17:51:00,50.9,21.3,30.12,NNE,22,0.0,6.0,31,0.00,,,0.00,WUHU21623XXSP,2013-04-05 21:51:00,
2013-04-05 17:56:00,50.7,20.4,30.12,North,0,4.3,4.3,30,0.00,,,0.00,WUHU21623XXSP,2013-04-05 21:56:00,
2013-04-05 18:01:00,52.0,20.6,30.13,NNW,337,7.2,7.2,29,0.00,,,0.00,WUHU21623XXSP,2013-04-05 22:01:00,
2013-04-05 18:06:00,51.6,20.3,30.13,NNW,337,6.0,7.2,29,0.00,,,0.00,WUHU21623XXSP,2013-04-05 22:06:00,
2013-04-05 18:12:00,50.7,20.4,30.13,NNE,22,0.0,6.7,30,0.00,,,0.00,WUHU21623XXSP,2013-04-05 22:12:00,
2013-04-05 18:17:00,50.2,20.6,30.13,North,0,0.0,6.7,31,0.00,,,0.00,WUHU21623XXSP,2013-04-05 22:17:00,
2013-04-05 18:22:00,49.3,19.9,30.13,North,0,1.1,1.1,31,0.00,,,0.00,WUHU21623XXSP,2013-04-05 22:22:00,
2013-04-05 18:27:00,48.9,19.6,30.13,NNW,337,0.0,1.1,31,0.00,,,0.00,WUHU21623XXSP,2013-04-05 22:27:00,
2013-04-05 18:32:00,48.6,19.3,30.13,North,0,3.6,3.6,31,0.00,,,0.00,WUHU21623XXSP,2013-04-05 22:32:00,
2013-04-05 18:37:00,48.2,19.7,30.13,North,0,0.0,3.6,32,0.00,,,0.00,WUHU21623XXSP,2013-04-05 22:37:00,
2013-04-05 18:42:00,48.4,19.1,30.13,SW,225,0.0,0.0,31,0.00,,,0.00,WUHU21623XXSP,2013-04-05 22:42:00,
2013-04-05 18:47:00,47.8,18.8,30.13,SW,225,0.0,0.0,31,0.00,,,0.00,WUHU21623XXSP,2013-04-05 22:47:00,
2013-04-05 18:52:00,47.3,19.0,30.14,SW,225,0.0,0.0,31,0.00,,,0.00,WUHU21623XXSP,2013-04-05 22:52:00,
2013-04-05 18:57:00,46.9,18.5,30.14,North,0,0.0,0.0,32,0.00,,,0.00,WUHU21623XXSP,2013-04-05 22:57:00,
2013-04-05 19:02:00,46.6,18.4,30.14,North,0,0.0,0.0,32,0.00,,,0.00,WUHU21623XXSP,2013-04-05 23:02:00,
2013-04-05 19:07:00,45.9,17.5,30.14,North,0,0.0,0.0,32,0.00,,,0.00,WUHU21623XXSP,2013-04-05 23:07:00,
2013-04-05 19:12:00,45.5,17.9,30.14,North,0,0.0,0.0,33,0.00,,,0.00,WUHU21623XXSP,2013-04-05 23:12:00,
2013-04-05 19:17:00,45.0,18.1,30.14,North,0,3.1,3.8,34,0.00,,,0.00,WUHU21623XXSP,2013-04-05 23:17:00,
2013-04-05 19:22:00,44.8,18.1,30.14,North,0,0.0,3.8,34,0.00,,,0.00,WUHU21623XXSP,2013-04-05 23:22:00,
2013-04-05 19:27:00,44.2,17.4,30.14,North,0,0.0,0.0,34,0.00,,,0.00,WUHU21623XXSP,2013-04-05 23:27:00,
2013-04-05 19:32:00,43.9,17.8,30.15,North,0,0.0,0.0,35,0.00,,,0.00,WUHU21623XXSP,2013-04-05 23:32:00,
2013-04-05 19:37:00,43.5,17.4,30.14,North,0,0.0,0.0,35,0.00,,,0.00,WUHU21623XXSP,2013-04-05 23:37:00,
2013-04-05 19:42:00,43.5,17.4,30.14,NNW,337,0.0,0.0,35,0.00,,,0.00,WUHU21623XXSP,2013-04-05 23:42:00,
2013-04-05 19:47:00,43.3,17.3,30.14,NNW,337,0.0,0.0,35,0.00,,,0.00,WUHU21623XXSP,2013-04-05 23:47:00,
2013-04-05 19:52:00,43.0,17.0,30.15,NNW,337,0.0,0.0,35,0.00,,,0.00,WUHU21623XXSP,2013-04-05 23:52:00,
2013-04-05 19:57:00,42.6,16.6,30.15,NNW,337,0.0,0.0,35,0.00,,,0.00,WUHU21623XXSP,2013-04-05 23:57:00,
2013-04-05 20:02:00,42.6,16.6,30.15,NNW,337,0.0,0.0,35,0.00,,,0.00,WUHU21623XXSP,2013-04-06 00:02:00,
2013-04-05 20:07:00,42.4,17.1,30.16,NNW,337,0.0,0.0,36,0.00,,,0.00,WUHU21623XXSP,2013-04-06 00:07:00,
2013-04-05 20:12:00,42.1,16.8,30.15,NNW,337,0.0,0.0,36,0.00,,,0.00,WUHU21623XXSP,2013-04-06 00:12:00,
2013-04-05 20:17:00,41.5,17.0,30.15,NNW,337,0.0,0.0,37,0.00,,,0.00,WUHU21623XXSP,2013-04-06 00:17:00,
2013-04-05 20:22:00,41.4,16.9,30.16,NNW,337,0.0,0.0,37,0.00,,,0.00,WUHU21623XXSP,2013-04-06 00:22:00,
2013-04-05 20:27:00,40.8,16.7,30.16,NNW,337,0.0,0.0,37,0.00,,,0.00,WUHU21623XXSP,2013-04-06 00:27:00,
2013-04-05 20:32:00,40.3,16.2,30.16,NNW,337,0.0,0.0,37,0.00,,,0.00,WUHU21623XXSP,2013-04-06 00:32:00,
2013-04-05 20:37:00,39.9,15.7,30.16,NNW,337,0.0,0.0,37,0.00,,,0.00,WUHU21623XXSP,2013-04-06 00:37:00,
2013-04-05 20:42:00,39.6,15.9,30.16,NNW,337,0.0,0.0,38,0.00,,,0.00,WUHU21623XXSP,2013-04-06 00:42:00,
2013-04-05 20:48:00,39.0,15.4,30.16,NNW,337,0.0,0.0,38,0.00,,,0.00,WUHU21623XXSP,2013-04-06 00:48:00,
2013-04-05 20:52:00,38.8,15.4,30.16,NNW,337,0.0,0.0,39,0.00,,,0.00,WUHU21623XXSP,2013-04-06 00:52:00,
2013-04-05 20:58:00,38.5,15.6,30.16,NNW,337,0.0,0.0,39,0.00,,,0.00,WUHU21623XXSP,2013-04-06 00:58:00,
2013-04-05 21:03:00,38.1,15.9,30.16,NNW,337,0.0,0.0,40,0.00,,,0.00,WUHU21623XXSP,2013-04-06 01:03:00,
2013-04-05 21:08:00,37.9,15.7,30.16,NNW,337,0.0,0.0,40,0.00,,,0.00,WUHU21623XXSP,2013-04-06 01:08:00,
2013-04-05 21:13:00,37.6,15.9,30.17,NNW,337,0.0,0.0,41,0.00,,,0.00,WUHU21623XXSP,2013-04-06 01:13:00,
2013-04-05 21:18:00,37.0,16.0,30.17,NNW,337,0.0,0.0,42,0.00,,,0.00,WUHU21623XXSP,2013-04-06 01:18:00,
2013-04-05 21:23:00,36.9,15.8,30.17,NNW,337,0.0,0.0,42,0.00,,,0.00,WUHU21623XXSP,2013-04-06 01:23:00,
2013-04-05 21:28:00,36.5,16.0,30.18,NNW,337,0.0,0.0,43,0.00,,,0.00,WUHU21623XXSP,2013-04-06 01:28:00,
2013-04-05 21:33:00,36.1,15.9,30.18,NNW,337,0.0,0.0,44,0.00,,,0.00,WUHU21623XXSP,2013-04-06 01:33:00,
2013-04-05 21:38:00,36.0,16.1,30.18,NNW,337,0.0,0.0,44,0.00,,,0.00,WUHU21623XXSP,2013-04-06 01:38:00,
2013-04-05 21:43:00,35.4,16.1,30.18,NNW,337,0.0,0.0,45,0.00,,,0.00,WUHU21623XXSP,2013-04-06 01:43:00,
2013-04-05 21:48:00,35.2,15.9,30.19,NNW,337,0.0,0.0,45,0.00,,,0.00,WUHU21623XXSP,2013-04-06 01:48:00,
2013-04-05 21:53:00,34.9,16.1,30.19,NNW,337,0.0,0.0,46,0.00,,,0.00,WUHU21623XXSP,2013-04-06 01:53:00,
2013-04-05 21:58:00,34.5,15.7,30.19,NNW,337,0.0,0.0,46,0.00,,,0.00,WUHU21623XXSP,2013-04-06 01:58:00,
2013-04-05 22:03:00,34.3,16.1,30.19,NNW,337,0.0,0.0,47,0.00,,,0.00,WUHU21623XXSP,2013-04-06 02:03:00,
2013-04-05 22:08:00,34.3,16.1,30.19,NNW,337,0.0,0.0,46,0.00,,,0.00,WUHU21623XXSP,2013-04-06 02:08:00,
2013-04-05 22:13:00,34.2,15.9,30.19,NNW,337,0.0,0.0,47,0.00,,,0.00,WUHU21623XXSP,2013-04-06 02:13:00,
2013-04-05 22:18:00,33.6,15.4,30.19,NNW,337,0.0,0.0,47,0.00,,,0.00,WUHU21623XXSP,2013-04-06 02:18:00,
2013-04-05 22:23:00,33.6,15.9,30.19,NNW,337,0.0,0.0,48,0.00,,,0.00,WUHU21623XXSP,2013-04-06 02:23:00,
2013-04-05 22:28:00,33.3,15.6,30.19,North,0,0.0,0.0,48,0.00,,,0.00,WUHU21623XXSP,2013-04-06 02:28:00,
2013-04-05 22:33:00,33.1,15.9,30.19,North,0,0.0,0.0,49,0.00,,,0.00,WUHU21623XXSP,2013-04-06 02:33:00,
2013-04-05 22:38:00,32.9,15.7,30.19,North,0,0.0,0.0,49,0.00,,,0.00,WUHU21623XXSP,2013-04-06 02:38:00,
2013-04-05 22:43:00,32.7,16.1,30.20,South,180,0.0,0.0,52,0.00,,,0.00,WUHU21623XXSP,2013-04-06 02:43:00,
2013-04-05 22:48:00,32.7,17.4,30.19,South,180,0.0,0.0,53,0.00,,,0.00,WUHU21623XXSP,2013-04-06 02:48:00,
2013-04-05 22:53:00,32.7,17.4,30.20,NNE,22,0.0,0.0,53,0.00,,,0.00,WUHU21623XXSP,2013-04-06 02:53:00,
2013-04-05 22:58:00,32.9,17.5,30.20,SSE,157,0.0,0.0,53,0.00,,,0.00,WUHU21623XXSP,2013-04-06 02:58:00,
2013-04-05 23:03:00,32.9,17.5,30.20,South,180,0.0,0.0,53,0.00,,,0.00,WUHU21623XXSP,2013-04-06 03:03:00,
2013-04-05 23:08:00,33.1,18.1,30.20,South,180,0.0,0.0,54,0.00,,,0.00,WUHU21623XXSP,2013-04-06 03:08:00,
2013-04-05 23:13:00,33.1,18.1,30.20,NNE,22,0.0,5.4,54,0.00,,,0.00,WUHU21623XXSP,2013-04-06 03:13:00,
2013-04-05 23:18:00,33.1,18.1,30.20,NNE,22,0.0,5.4,54,0.00,,,0.00,WUHU21623XXSP,2013-04-06 03:18:00,
2013-04-05 23:23:00,33.1,18.6,30.20,NNE,22,0.0,0.0,55,0.00,,,0.00,WUHU21623XXSP,2013-04-06 03:23:00,
2013-04-05 23:28:00,32.9,18.8,30.19,NE,45,0.0,4.5,56,0.00,,,0.00,WUHU21623XXSP,2013-04-06 03:28:00,
2013-04-05 23:33:00,32.7,18.7,30.20,South,180,0.0,4.5,56,0.00,,,0.00,WUHU21623XXSP,2013-04-06 03:33:00,
2013-04-05 23:38:00,32.7,18.7,30.19,South,180,0.0,0.0,56,0.00,,,0.00,WUHU21623XXSP,2013-04-06 03:38:00,
2013-04-05 23:43:00,32.5,18.9,30.19,SSE,157,1.1,2.5,57,0.00,,,0.00,WUHU21623XXSP,2013-04-06 03:43:00,
2013-04-05 23:48:00,32.4,18.8,30.20,South,180,4.0,4.0,57,0.00,,,0.00,WUHU21623XXSP,2013-04-06 03:48:00,
2013-04-05 23:53:00,32.2,18.6,30.20,NNE,22,0.0,4.0,57,0.00,,,0.00,WUHU21623XXSP,2013-04-06 03:53:00,
2013-04-05 23:58:00,32.2,18.6,30.20,NNE,22,0.0,3.8,57,0.00,,,0.00,WUHU21623XXSP,2013-04-06 03:58:00,